Location: Bijele Vode
(45.2833°N, 16.2000°E)
Time: 06:49:18
(UTC+00:00)

Nauka - Pass Details

Date: 05 October 2021
Orbit: 417 x 423 km, 51.6° (Epoch: 16 October)

Event Time Altitude Azimuth Distance (km) Brightness Sun altitude
Rises 16:45:17 0° 299° (WNW) 2,365 ? -3.9°
Reaches altitude 10° 16:47:23 10° 299° (WNW) 1,499 ? -4.2°
Maximum altitude 16:50:46 89° 27° (NNE) 423 ? -4.8°
Drops below altitude 10° 16:54:07 10° 120° (ESE) 1,494 ? -5.4°
Enters shadow 16:55:22 - 120° (ESE) 2,008 ? -5.6°
